| time (UTC) | temp F | wind direction | speed MPH | gust MPH | rain 1hr in | rain 24hr in | rain mn in | humidity % | barometer mb |
| 20260509152529 | 48 | 231 | 1.0 | 8.0 | 0.00 | 0.00 | 0.00 | 72 | 1014.3 |
| 20260509152029 | 48 | 122 | 2.0 | 8.0 | 0.00 | 0.00 | 0.00 | 73 | 1014.5 |
| 20260509151547 | 48 | 214 | 1.0 | 9.0 | 0.00 | 0.00 | 0.00 | 73 | 1014.4 |
| 20260509151030 | 48 | 224 | 2.0 | 9.0 | 0.00 | 0.00 | 0.00 | 73 | 1014.3 |
| 20260509150530 | 48 | 338 | 2.0 | 9.0 | 0.00 | 0.00 | 0.00 | 73 | 1014.5 |
| 20260509150045 | 49 | 82 | 2.0 | 10.0 | 0.00 | 0.00 | 0.00 | 72 | 1014.4 |
| 20260509145530 | 49 | 59 | 4.0 | 10.0 | 0.00 | 0.00 | 0.00 | 72 | 1014.4 |
| 20260509145030 | 49 | 100 | 2.0 | 8.0 | 0.00 | 0.00 | 0.00 | 73 | 1014.4 |
| 20260509144542 | 49 | 141 | 2.0 | 8.0 | 0.00 | 0.00 | 0.00 | 73 | 1014.5 |
| 20260509144031 | 49 | 57 | 1.0 | 7.0 | 0.00 | 0.00 | 0.00 | 73 | 1014.4 |
| 20260509143530 | 49 | 162 | 1.0 | 6.0 | 0.00 | 0.00 | 0.00 | 72 | 1014.6 |
| 20260509143040 | 49 | 118 | 2.0 | 9.0 | 0.00 | 0.00 | 0.00 | 73 | 1014.5 |
| 20260509142532 | 49 | 221 | 2.0 | 9.0 | 0.00 | 0.00 | 0.00 | 71 | 1014.5 |
| 20260509142029 | 49 | 53 | 3.0 | 12.0 | 0.00 | 0.00 | 0.00 | 70 | 1014.3 |
| 20260509141548 | 49 | 118 | 2.0 | 13.0 | 0.00 | 0.00 | 0.00 | 71 | 1014.3 |
| 20260509141030 | 49 | 38 | 3.0 | 13.0 | 0.00 | 0.00 | 0.00 | 71 | 1014.2 |
| 20260509140529 | 49 | 60 | 2.0 | 8.0 | 0.00 | 0.00 | 0.00 | 70 | 1014.2 |
| 20260509140040 | 49 | 105 | 2.0 | 7.0 | 0.00 | 0.00 | 0.00 | 71 | 1014.2 |
| 20260509135532 | 49 | 116 | 3.0 | 10.0 | 0.00 | 0.00 | 0.00 | 71 | 1014.3 |
| 20260509135033 | 49 | 20 | 2.0 | 10.0 | 0.00 | 0.00 | 0.00 | 72 | 1014.4 |
| 20260509134542 | 49 | 30 | 1.0 | 6.0 | 0.00 | 0.00 | 0.00 | 73 | 1014.5 |
| 20260509134029 | 49 | 64 | 2.0 | 6.0 | 0.00 | 0.00 | 0.00 | 73 | 1014.4 |
| 20260509133530 | 49 | 75 | 3.0 | 6.0 | 0.00 | 0.00 | 0.00 | 73 | 1014.5 |
| 20260509133043 | 49 | 89 | 1.0 | 8.0 | 0.00 | 0.00 | 0.00 | 72 | 1014.5 |
| 20260509132530 | 49 | 62 | 2.0 | 8.0 | 0.00 | 0.00 | 0.00 | 71 | 1014.3 |
| 20260509132030 | 50 | 117 | 3.0 | 9.0 | 0.00 | 0.00 | 0.00 | 70 | 1014.3 |
| 20260509131543 | 50 | 79 | 2.0 | 9.0 | 0.00 | 0.00 | 0.00 | 68 | 1014.4 |
| 20260509131029 | 51 | 79 | 3.0 | 9.0 | 0.00 | 0.00 | 0.00 | 67 | 1014.2 |
| 20260509130529 | 52 | 167 | 2.0 | 7.0 | 0.00 | 0.00 | 0.00 | 63 | 1014.2 |
| 20260509130058 | 53 | 90 | 1.0 | 7.0 | 0.00 | 0.00 | 0.00 | 59 | 1014.1 |
| 20260509125529 | 53 | 45 | 1.0 | 3.0 | 0.00 | 0.00 | 0.00 | 60 | 1014.1 |
| 20260509125030 | 53 | 30 | 0.0 | 6.0 | 0.00 | 0.00 | 0.00 | 60 | 1014.2 |
| 20260509124548 | 53 | 0 | 1.0 | 6.0 | 0.00 | 0.00 | 0.00 | 59 | 1014.2 |
| 20260509124030 | 53 | 136 | 0.0 | 6.0 | 0.00 | 0.00 | 0.00 | 59 | 1014.1 |
| 20260509123530 | 53 | 193 | 0.0 | 6.0 | 0.00 | 0.00 | 0.00 | 57 | 1014.0 |
| 20260509123043 | 53 | 0 | 2.0 | 5.0 | 0.00 | 0.00 | 0.00 | 54 | 1014.2 |
| 20260509122529 | 54 | 248 | 1.0 | 4.0 | 0.00 | 0.00 | 0.00 | 53 | 1014.3 |
| 20260509122030 | 55 | 259 | 1.0 | 10.0 | 0.00 | 0.00 | 0.00 | 50 | 1014.3 |
| 20260509121539 | 55 | 249 | 2.0 | 10.0 | 0.00 | 0.00 | 0.00 | 46 | 1014.2 |
| 20260509121030 | 55 | 189 | 4.0 | 10.0 | 0.00 | 0.00 | 0.00 | 45 | 1014.1 |
| 20260509120530 | 55 | 112 | 3.0 | 9.0 | 0.00 | 0.00 | 0.00 | 45 | 1014.1 |
| 20260509120041 | 55 | 123 | 3.0 | 9.0 | 0.00 | 0.00 | 0.00 | 45 | 1014.2 |
| 20260509115532 | 55 | 143 | 3.0 | 9.0 | 0.00 | 0.00 | 0.00 | 45 | 1014.3 |
| 20260509115029 | 55 | 156 | 4.0 | 9.0 | 0.00 | 0.00 | 0.00 | 44 | 1014.4 |
| 20260509114544 | 55 | 188 | 1.0 | 9.0 | 0.00 | 0.00 | 0.00 | 45 | 1014.3 |
| 20260509114029 | 55 | 150 | 2.0 | 10.0 | 0.00 | 0.00 | 0.00 | 45 | 1014.6 |
| 20260509113530 | 55 | 160 | 3.0 | 10.0 | 0.00 | 0.00 | 0.00 | 44 | 1014.5 |
| 20260509113050 | 55 | 138 | 3.0 | 8.0 | 0.00 | 0.00 | 0.00 | 45 | 1014.5 |
| 20260509112530 | 55 | 127 | 3.0 | 14.0 | 0.00 | 0.00 | 0.00 | 44 | 1014.6 |
| 20260509112030 | 55 | 151 | 3.0 | 14.0 | 0.00 | 0.00 | 0.00 | 45 | 1014.6 |
| 20260509111542 | 55 | 146 | 5.0 | 12.0 | 0.00 | 0.00 | 0.00 | 44 | 1014.5 |
| 20260509111032 | 55 | 167 | 4.0 | 12.0 | 0.00 | 0.00 | 0.00 | 45 | 1014.7 |
| 20260509110529 | 55 | 175 | 5.0 | 12.0 | 0.00 | 0.00 | 0.00 | 44 | 1014.6 |
| 20260509110045 | 55 | 142 | 2.0 | 12.0 | 0.00 | 0.00 | 0.00 | 45 | 1014.6 |
| 20260509105530 | 55 | 126 | 3.0 | 12.0 | 0.00 | 0.00 | 0.00 | 45 | 1014.7 |
| 20260509105030 | 55 | 68 | 4.0 | 12.0 | 0.00 | 0.00 | 0.00 | 45 | 1014.6 |
| 20260509104538 | 55 | 150 | 4.0 | 8.0 | 0.00 | 0.00 | 0.00 | 45 | 1014.6 |
| 20260509104031 | 55 | 257 | 3.0 | 13.0 | 0.00 | 0.00 | 0.00 | 45 | 1014.7 |
| 20260509103529 | 55 | 154 | 5.0 | 13.0 | 0.00 | 0.00 | 0.00 | 44 | 1014.7 |
| 20260509103048 | 55 | 67 | 2.0 | 8.0 | 0.00 | 0.00 | 0.00 | 44 | 1014.7 |
| 20260509102530 | 55 | 150 | 3.0 | 8.0 | 0.00 | 0.00 | 0.00 | 44 | 1014.7 |
| 20260509102029 | 55 | 155 | 2.0 | 8.0 | 0.00 | 0.00 | 0.00 | 45 | 1014.8 |
| 20260509101557 | 55 | 139 | 2.0 | 8.0 | 0.00 | 0.00 | 0.00 | 46 | 1014.9 |
| 20260509101031 | 55 | 119 | 2.0 | 8.0 | 0.00 | 0.00 | 0.00 | 46 | 1015.0 |
| 20260509100529 | 55 | 142 | 2.0 | 5.0 | 0.00 | 0.00 | 0.00 | 47 | 1015.0 |
| 20260509100037 | 55 | 135 | 2.0 | 7.0 | 0.00 | 0.00 | 0.00 | 47 | 1015.0 |
| 20260509095531 | 54 | 163 | 2.0 | 7.0 | 0.00 | 0.00 | 0.00 | 47 | 1015.0 |
| 20260509095029 | 54 | 153 | 2.0 | 8.0 | 0.00 | 0.00 | 0.00 | 47 | 1015.0 |
| 20260509094542 | 54 | 148 | 3.0 | 8.0 | 0.00 | 0.00 | 0.00 | 47 | 1015.1 |
| 20260509094029 | 54 | 127 | 1.0 | 7.0 | 0.00 | 0.00 | 0.00 | 49 | 1015.1 |
| 20260509093532 | 54 | 155 | 2.0 | 7.0 | 0.00 | 0.00 | 0.00 | 48 | 1015.1 |
| 20260509093041 | 54 | 105 | 2.0 | 5.0 | 0.00 | 0.00 | 0.00 | 48 | 1015.1 |
| 20260509092529 | 54 | 162 | 2.0 | 8.0 | 0.00 | 0.00 | 0.00 | 48 | 1015.2 |
| 20260509092029 | 53 | 147 | 2.0 | 8.0 | 0.00 | 0.00 | 0.00 | 49 | 1015.2 |
| 20260509091543 | 53 | 147 | 3.0 | 8.0 | 0.00 | 0.00 | 0.00 | 49 | 1015.3 |
| 20260509091030 | 52 | 144 | 3.0 | 6.0 | 0.00 | 0.00 | 0.00 | 51 | 1015.2 |
| 20260509090534 | 51 | 160 | 0.0 | 6.0 | 0.00 | 0.00 | 0.00 | 60 | 1015.3 |
| 20260509090048 | 51 | 143 | 0.0 | 2.0 | 0.00 | 0.00 | 0.00 | 64 | 1015.3 |
| 20260509085529 | 51 | 0 | 0.0 | 0.0 | 0.00 | 0.00 | 0.00 | 64 | 1015.2 |
| 20260509085030 | 51 | 0 | 0.0 | 3.0 | 0.00 | 0.00 | 0.00 | 62 | 1015.3 |
| 20260509084547 | 51 | 0 | 0.0 | 3.0 | 0.00 | 0.00 | 0.00 | 62 | 1015.3 |
| 20260509084030 | 51 | 124 | 1.0 | 3.0 | 0.00 | 0.00 | 0.00 | 61 | 1015.4 |
| 20260509083529 | 51 | 149 | 0.0 | 3.0 | 0.00 | 0.00 | 0.00 | 60 | 1015.5 |
| 20260509083052 | 51 | 0 | 0.0 | 1.0 | 0.00 | 0.00 | 0.00 | 62 | 1015.4 |
| 20260509082533 | 50 | 327 | 0.0 | 2.0 | 0.00 | 0.00 | 0.00 | 62 | 1015.5 |
| 20260509082030 | 50 | 0 | 0.0 | 2.0 | 0.00 | 0.00 | 0.00 | 61 | 1015.5 |
| 20260509081539 | 51 | 53 | 0.0 | 2.0 | 0.00 | 0.00 | 0.00 | 63 | 1015.6 |
| 20260509081029 | 50 | 0 | 0.0 | 2.0 | 0.00 | 0.00 | 0.00 | 63 | 1015.6 |
| 20260509080532 | 50 | 47 | 1.0 | 2.0 | 0.00 | 0.00 | 0.00 | 62 | 1015.7 |
| 20260509080046 | 50 | 0 | 1.0 | 2.0 | 0.00 | 0.00 | 0.00 | 62 | 1015.7 |
| 20260509075533 | 51 | 34 | 1.0 | 3.0 | 0.00 | 0.00 | 0.00 | 61 | 1015.7 |
| 20260509075030 | 51 | 35 | 1.0 | 3.0 | 0.00 | 0.00 | 0.00 | 60 | 1015.7 |
| 20260509074552 | 51 | 60 | 0.0 | 3.0 | 0.00 | 0.00 | 0.00 | 62 | 1015.8 |
| 20260509074032 | 51 | 37 | 0.0 | 3.0 | 0.00 | 0.00 | 0.00 | 60 | 1015.8 |
| 20260509073534 | 51 | 72 | 0.0 | 1.0 | 0.00 | 0.00 | 0.00 | 61 | 1015.8 |
| 20260509073042 | 51 | 0 | 0.0 | 3.0 | 0.00 | 0.00 | 0.00 | 61 | 1015.8 |
| 20260509072532 | 52 | 0 | 0.0 | 4.0 | 0.00 | 0.00 | 0.00 | 61 | 1015.8 |
| 20260509072030 | 52 | 147 | 1.0 | 4.0 | 0.00 | 0.00 | 0.00 | 52 | 1015.9 |
| 20260509071543 | 52 | 340 | 1.0 | 6.0 | 0.00 | 0.00 | 0.00 | 52 | 1015.9 |
| 20260509071030 | 52 | 154 | 1.0 | 7.0 | 0.00 | 0.00 | 0.00 | 52 | 1015.9 |
| 20260509070533 | 51 | 124 | 1.0 | 7.0 | 0.00 | 0.00 | 0.00 | 52 | 1015.9 |
| 20260509070044 | 51 | 148 | 1.0 | 7.0 | 0.00 | 0.00 | 0.00 | 52 | 1015.9 |
| 20260509065529 | 51 | 137 | 2.0 | 7.0 | 0.00 | 0.00 | 0.00 | 52 | 1015.9 |
| 20260509065032 | 51 | 88 | 2.0 | 4.0 | 0.00 | 0.00 | 0.00 | 53 | 1016.0 |
| 20260509064539 | 51 | 167 | 1.0 | 4.0 | 0.00 | 0.00 | 0.00 | 53 | 1015.9 |
| 20260509064031 | 51 | 45 | 1.0 | 4.0 | 0.00 | 0.00 | 0.00 | 53 | 1015.8 |
| 20260509063532 | 50 | 148 | 1.0 | 3.0 | 0.00 | 0.00 | 0.00 | 54 | 1015.8 |
| 20260509063040 | 50 | 101 | 0.0 | 3.0 | 0.00 | 0.00 | 0.00 | 54 | 1015.9 |
| 20260509062530 | 50 | 98 | 1.0 | 6.0 | 0.00 | 0.00 | 0.00 | 54 | 1015.8 |
| 20260509062033 | 50 | 152 | 0.0 | 6.0 | 0.00 | 0.00 | 0.00 | 55 | 1015.8 |
| 20260509061544 | 50 | 131 | 2.0 | 6.0 | 0.00 | 0.00 | 0.00 | 54 | 1015.8 |
| 20260509061032 | 50 | 0 | 1.0 | 5.0 | 0.00 | 0.00 | 0.00 | 55 | 1015.8 |
| 20260509060532 | 50 | 153 | 1.0 | 5.0 | 0.00 | 0.00 | 0.00 | 54 | 1015.8 |
| 20260509060106 | 49 | 141 | 1.0 | 5.0 | 0.00 | 0.00 | 0.00 | 54 | 1015.7 |
| 20260509055530 | 49 | 233 | 1.0 | 7.0 | 0.00 | 0.00 | 0.00 | 56 | 1015.9 |
| 20260509055031 | 49 | 292 | 0.0 | 7.0 | 0.00 | 0.00 | 0.00 | 55 | 1015.7 |
| 20260509054549 | 49 | 0 | 0.0 | 2.0 | 0.00 | 0.00 | 0.00 | 56 | 1015.6 |
| 20260509054035 | 49 | 115 | 0.0 | 2.0 | 0.00 | 0.00 | 0.00 | 54 | 1015.7 |
| 20260509053532 | 49 | 0 | 0.0 | 2.0 | 0.00 | 0.00 | 0.00 | 54 | 1015.7 |
| 20260509053110 | 49 | 0 | 0.0 | 2.0 | 0.00 | 0.00 | 0.00 | 55 | 1015.7 |
| 20260509052533 | 49 | 0 | 0.0 | 4.0 | 0.00 | 0.00 | 0.00 | 56 | 1015.6 |
| 20260509052032 | 49 | 210 | 0.0 | 4.0 | 0.00 | 0.00 | 0.00 | 56 | 1015.6 |
| 20260509051551 | 49 | 120 | 2.0 | 4.0 | 0.00 | 0.00 | 0.00 | 55 | 1015.5 |
| 20260509051030 | 48 | 158 | 1.0 | 4.0 | 0.00 | 0.00 | 0.00 | 55 | 1015.6 |
| 20260509050532 | 48 | 142 | 0.0 | 2.0 | 0.00 | 0.00 | 0.00 | 56 | 1015.6 |
| 20260509050047 | 48 | 141 | 0.0 | 2.0 | 0.00 | 0.00 | 0.00 | 57 | 1015.6 |
| 20260509045532 | 48 | 142 | 0.0 | 2.0 | 0.00 | 0.00 | 0.00 | 56 | 1015.6 |
| 20260509045030 | 48 | 155 | 0.0 | 1.0 | 0.00 | 0.00 | 0.00 | 57 | 1015.6 |
| 20260509044559 | 48 | 0 | 0.0 | 1.0 | 0.00 | 0.00 | 0.00 | 58 | 1015.6 |
| 20260509044031 | 48 | 0 | 0.0 | 0.0 | 0.00 | 0.00 | 0.00 | 57 | 1015.6 |
| 20260509043529 | 48 | 0 | 0.0 | 0.0 | 0.00 | 0.00 | 0.00 | 59 | 1015.6 |
| 20260509043056 | 48 | 0 | 0.0 | 0.0 | 0.00 | 0.00 | 0.00 | 59 | 1015.6 |
| 20260509042529 | 48 | 0 | 0.0 | 1.0 | 0.00 | 0.00 | 0.00 | 57 | 1015.6 |
| 20260509042030 | 48 | 0 | 0.0 | 2.0 | 0.00 | 0.00 | 0.00 | 57 | 1015.6 |
| 20260509041542 | 48 | 0 | 0.0 | 4.0 | 0.00 | 0.00 | 0.00 | 56 | 1015.6 |
| 20260509041033 | 48 | 0 | 0.0 | 4.0 | 0.00 | 0.00 | 0.00 | 56 | 1015.6 |
| 20260509040530 | 48 | 136 | 0.0 | 4.0 | 0.00 | 0.00 | 0.00 | 55 | 1015.6 |
| 20260509040048 | 48 | 144 | 1.0 | 4.0 | 0.00 | 0.00 | 0.00 | 55 | 1015.6 |
| 20260509035532 | 48 | 159 | 0.0 | 4.0 | 0.00 | 0.00 | 0.00 | 55 | 1015.6 |
| 20260509035031 | 48 | 155 | 1.0 | 4.0 | 0.00 | 0.00 | 0.00 | 55 | 1015.6 |
| 20260509034542 | 48 | 165 | 1.0 | 3.0 | 0.00 | 0.00 | 0.00 | 55 | 1015.6 |
| 20260509034031 | 48 | 162 | 0.0 | 3.0 | 0.00 | 0.00 | 0.00 | 55 | 1015.9 |
| 20260509033530 | 48 | 214 | 1.0 | 3.0 | 0.00 | 0.00 | 0.00 | 55 | 1015.8 |
| 20260509033042 | 47 | 262 | 0.0 | 1.0 | 0.00 | 0.00 | 0.00 | 56 | 1015.9 |
| 20260509032530 | 48 | 0 | 0.0 | 0.0 | 0.00 | 0.00 | 0.00 | 56 | 1015.9 |
| 20260509032030 | 48 | 0 | 0.0 | 0.0 | 0.00 | 0.00 | 0.00 | 55 | 1016.0 |
| 20260509031555 | 48 | 0 | 0.0 | 2.0 | 0.00 | 0.00 | 0.00 | 55 | 1016.0 |
| 20260509031030 | 48 | 0 | 0.0 | 3.0 | 0.00 | 0.00 | 0.00 | 55 | 1016.1 |
| 20260509030530 | 48 | 146 | 1.0 | 3.0 | 0.00 | 0.00 | 0.00 | 54 | 1016.1 |
| 20260509030101 | 48 | 0 | 0.0 | 1.0 | 0.00 | 0.00 | 0.00 | 56 | 1016.2 |
| 20260509025531 | 48 | 226 | 0.0 | 1.0 | 0.00 | 0.00 | 0.00 | 54 | 1016.2 |
| 20260509025031 | 48 | 0 | 0.0 | 1.0 | 0.00 | 0.00 | 0.00 | 54 | 1016.2 |
| 20260509024545 | 48 | 259 | 0.0 | 1.0 | 0.00 | 0.00 | 0.00 | 53 | 1016.2 |
| 20260509024030 | 48 | 265 | 0.0 | 1.0 | 0.00 | 0.00 | 0.00 | 54 | 1016.3 |
| 20260509023529 | 48 | 0 | 0.0 | 0.0 | 0.00 | 0.00 | 0.00 | 54 | 1016.3 |
| 20260509023042 | 48 | 0 | 0.0 | 0.0 | 0.00 | 0.00 | 0.00 | 54 | 1016.3 |
| 20260509022530 | 48 | 0 | 0.0 | 0.0 | 0.00 | 0.00 | 0.00 | 54 | 1016.4 |
| 20260509022030 | 48 | 0 | 0.0 | 0.0 | 0.00 | 0.00 | 0.00 | 53 | 1016.5 |
| 20260509021547 | 48 | 0 | 0.0 | 0.0 | 0.00 | 0.00 | 0.00 | 53 | 1016.5 |
| 20260509021033 | 48 | 0 | 0.0 | 0.0 | 0.00 | 0.00 | 0.00 | 54 | 1016.3 |
| 20260509020532 | 49 | 0 | 0.0 | 0.0 | 0.00 | 0.00 | 0.00 | 53 | 1016.6 |
| 20260509020053 | 49 | 0 | 0.0 | 0.0 | 0.00 | 0.00 | 0.00 | 53 | 1016.6 |
| 20260509015530 | 49 | 0 | 0.0 | 1.0 | 0.00 | 0.00 | 0.00 | 53 | 1016.5 |
| 20260509015031 | 49 | 0 | 0.0 | 2.0 | 0.00 | 0.00 | 0.00 | 53 | 1016.6 |
| 20260509014543 | 49 | 250 | 1.0 | 2.0 | 0.00 | 0.00 | 0.00 | 54 | 1016.6 |
| 20260509014033 | 48 | 241 | 1.0 | 3.0 | 0.00 | 0.00 | 0.00 | 54 | 1016.5 |
| 20260509013531 | 48 | 249 | 1.0 | 3.0 | 0.00 | 0.00 | 0.00 | 54 | 1016.6 |
| 20260509013040 | 48 | 142 | 1.0 | 3.0 | 0.00 | 0.00 | 0.00 | 54 | 1016.5 |
| 20260509012529 | 48 | 155 | 1.0 | 3.0 | 0.00 | 0.00 | 0.00 | 54 | 1016.6 |
| 20260509012033 | 48 | 160 | 1.0 | 4.0 | 0.00 | 0.00 | 0.00 | 55 | 1016.7 |
| 20260509011543 | 48 | 145 | 1.0 | 4.0 | 0.00 | 0.00 | 0.00 | 56 | 1016.6 |
| 20260509011031 | 49 | 210 | 1.0 | 4.0 | 0.00 | 0.00 | 0.00 | 54 | 1016.6 |
| 20260509010530 | 48 | 143 | 1.0 | 4.0 | 0.00 | 0.00 | 0.00 | 55 | 1016.7 |
| 20260509010044 | 48 | 139 | 1.0 | 3.0 | 0.00 | 0.00 | 0.00 | 56 | 1016.7 |
| 20260509005531 | 49 | 192 | 0.0 | 4.0 | 0.00 | 0.00 | 0.00 | 55 | 1016.7 |
| 20260509005029 | 49 | 0 | 1.0 | 7.0 | 0.00 | 0.00 | 0.00 | 56 | 1016.7 |
| 20260509004554 | 49 | 148 | 1.0 | 7.0 | 0.00 | 0.00 | 0.00 | 54 | 1016.6 |
| 20260509004030 | 49 | 211 | 2.0 | 5.0 | 0.00 | 0.00 | 0.00 | 54 | 1016.7 |
| 20260509003530 | 49 | 241 | 1.0 | 5.0 | 0.00 | 0.00 | 0.00 | 54 | 1016.7 |
| 20260509003051 | 49 | 198 | 1.0 | 5.0 | 0.00 | 0.00 | 0.00 | 53 | 1016.7 |
| 20260509002529 | 49 | 214 | 2.0 | 5.0 | 0.00 | 0.00 | 0.00 | 53 | 1016.8 |
| 20260509002033 | 49 | 146 | 2.0 | 5.0 | 0.00 | 0.00 | 0.00 | 53 | 1016.9 |
| 20260509001541 | 49 | 189 | 2.0 | 5.0 | 0.00 | 0.00 | 0.00 | 53 | 1016.9 |
| 20260509001030 | 49 | 166 | 2.0 | 5.0 | 0.00 | 0.00 | 0.00 | 53 | 1016.8 |
| 20260509000529 | 49 | 288 | 2.0 | 6.0 | 0.00 | 0.00 | 0.00 | 53 | 1016.9 |
| 20260509000046 | 49 | 217 | 3.0 | 7.0 | 0.00 | 0.00 | 0.00 | 53 | 1017.0 |
| 20260508235531 | 49 | 212 | 3.0 | 7.0 | 0.00 | 0.00 | 0.00 | 53 | 1016.9 |
| 20260508235034 | 49 | 161 | 3.0 | 7.0 | 0.00 | 0.00 | 0.00 | 53 | 1016.8 |
| 20260508234543 | 49 | 126 | 2.0 | 5.0 | 0.00 | 0.00 | 0.00 | 53 | 1016.9 |
| 20260508234030 | 49 | 148 | 1.0 | 3.0 | 0.00 | 0.00 | 0.00 | 54 | 1017.0 |
| 20260508233531 | 49 | 160 | 1.0 | 3.0 | 0.00 | 0.00 | 0.00 | 54 | 1017.0 |
| 20260508233044 | 49 | 216 | 1.0 | 3.0 | 0.00 | 0.00 | 0.00 | 55 | 1017.0 |
| 20260508232529 | 48 | 153 | 1.0 | 4.0 | 0.00 | 0.00 | 0.00 | 55 | 1017.0 |
| 20260508232030 | 49 | 0 | 0.0 | 4.0 | 0.00 | 0.00 | 0.00 | 56 | 1017.0 |
| 20260508231542 | 49 | 148 | 1.0 | 4.0 | 0.00 | 0.00 | 0.00 | 55 | 1017.1 |
| 20260508231031 | 49 | 230 | 1.0 | 3.0 | 0.00 | 0.00 | 0.00 | 55 | 1017.1 |
| 20260508230531 | 49 | 0 | 0.0 | 2.0 | 0.00 | 0.00 | 0.00 | 55 | 1017.2 |
| 20260508230041 | 49 | 224 | 0.0 | 2.0 | 0.00 | 0.00 | 0.00 | 57 | 1017.1 |
| 20260508225532 | 49 | 253 | 0.0 | 2.0 | 0.00 | 0.00 | 0.00 | 55 | 1017.1 |
| 20260508225035 | 49 | 0 | 0.0 | 2.0 | 0.00 | 0.00 | 0.00 | 56 | 1017.2 |
| 20260508224608 | 49 | 258 | 1.0 | 2.0 | 0.00 | 0.00 | 0.00 | 56 | 1017.2 |
| 20260508224029 | 49 | 246 | 0.0 | 2.0 | 0.00 | 0.00 | 0.00 | 56 | 1017.3 |
| 20260508223534 | 49 | 0 | 1.0 | 3.0 | 0.00 | 0.00 | 0.00 | 56 | 1017.3 |
| 20260508223051 | 49 | 242 | 1.0 | 3.0 | 0.00 | 0.00 | 0.00 | 56 | 1017.4 |
| 20260508222530 | 49 | 219 | 1.0 | 2.0 | 0.00 | 0.00 | 0.00 | 56 | 1017.3 |
| 20260508222033 | 49 | 229 | 1.0 | 2.0 | 0.00 | 0.00 | 0.00 | 55 | 1017.3 |
| 20260508221551 | 49 | 255 | 1.0 | 2.0 | 0.00 | 0.00 | 0.00 | 54 | 1017.4 |
| 20260508221032 | 49 | 236 | 1.0 | 3.0 | 0.00 | 0.00 | 0.00 | 56 | 1017.4 |
| 20260508220530 | 49 | 226 | 1.0 | 3.0 | 0.00 | 0.00 | 0.00 | 55 | 1017.5 |
| 20260508220050 | 50 | 216 | 0.0 | 3.0 | 0.00 | 0.00 | 0.00 | 53 | 1017.4 |
| 20260508215530 | 51 | 0 | 0.0 | 0.0 | 0.00 | 0.00 | 0.00 | 49 | 1017.5 |
| 20260508215030 | 51 | 0 | 0.0 | 0.0 | 0.00 | 0.00 | 0.00 | 49 | 1017.4 |
| 20260508214547 | 51 | 0 | 0.0 | 0.0 | 0.00 | 0.00 | 0.00 | 49 | 1017.3 |
| 20260508214030 | 51 | 0 | 0.0 | 0.0 | 0.00 | 0.00 | 0.00 | 49 | 1017.4 |
| 20260508213530 | 51 | 0 | 0.0 | 0.0 | 0.00 | 0.00 | 0.00 | 49 | 1017.3 |
| 20260508213045 | 50 | 0 | 0.0 | 0.0 | 0.00 | 0.00 | 0.00 | 49 | 1017.4 |
| 20260508212531 | 50 | 0 | 0.0 | 0.0 | 0.00 | 0.00 | 0.00 | 49 | 1017.3 |
| 20260508212033 | 50 | 0 | 0.0 | 0.0 | 0.00 | 0.00 | 0.00 | 49 | 1017.3 |
| 20260508211550 | 51 | 0 | 0.0 | 0.0 | 0.00 | 0.00 | 0.00 | 49 | 1017.3 |
| 20260508211031 | 51 | 0 | 0.0 | 0.0 | 0.00 | 0.00 | 0.00 | 49 | 1017.2 |
| 20260508210531 | 50 | 0 | 0.0 | 0.0 | 0.00 | 0.00 | 0.00 | 49 | 1017.1 |
| 20260508210046 | 50 | 0 | 0.0 | 0.0 | 0.00 | 0.00 | 0.00 | 49 | 1017.1 |
| 20260508205534 | 50 | 0 | 0.0 | 0.0 | 0.00 | 0.00 | 0.00 | 49 | 1017.2 |
| 20260508205030 | 50 | 0 | 0.0 | 0.0 | 0.00 | 0.00 | 0.00 | 50 | 1017.1 |
| 20260508204543 | 50 | 0 | 0.0 | 0.0 | 0.00 | 0.00 | 0.00 | 49 | 1017.0 |
| 20260508204030 | 50 | 0 | 0.0 | 0.0 | 0.00 | 0.00 | 0.00 | 49 | 1017.1 |
| 20260508203529 | 50 | 0 | 0.0 | 0.0 | 0.00 | 0.00 | 0.00 | 50 | 1017.1 |
| 20260508203054 | 50 | 0 | 0.0 | 0.0 | 0.00 | 0.00 | 0.00 | 50 | 1017.1 |
| 20260508202530 | 50 | 0 | 0.0 | 0.0 | 0.00 | 0.00 | 0.00 | 50 | 1017.1 |
| 20260508202034 | 50 | 0 | 0.0 | 0.0 | 0.00 | 0.00 | 0.00 | 50 | 1017.1 |
| 20260508201552 | 50 | 0 | 0.0 | 0.0 | 0.00 | 0.00 | 0.00 | 49 | 1017.1 |
| 20260508201032 | 50 | 0 | 0.0 | 0.0 | 0.00 | 0.00 | 0.00 | 49 | 1017.1 |
| 20260508200530 | 50 | 0 | 0.0 | 0.0 | 0.00 | 0.00 | 0.00 | 49 | 1017.0 |
| 20260508200040 | 51 | 0 | 0.0 | 0.0 | 0.00 | 0.00 | 0.00 | 49 | 1016.9 |
| 20260508195532 | 51 | 0 | 0.0 | 1.0 | 0.00 | 0.00 | 0.00 | 48 | 1016.9 |
| 20260508195030 | 51 | 0 | 0.0 | 1.0 | 0.00 | 0.00 | 0.00 | 47 | 1017.0 |
| 20260508194544 | 51 | 0 | 0.0 | 1.0 | 0.00 | 0.00 | 0.00 | 47 | 1017.0 |
| 20260508194030 | 51 | 0 | 0.0 | 0.0 | 0.00 | 0.00 | 0.00 | 47 | 1017.0 |
| 20260508193530 | 51 | 0 | 0.0 | 0.0 | 0.00 | 0.00 | 0.00 | 48 | 1017.0 |
| 20260508193044 | 51 | 0 | 0.0 | 0.0 | 0.00 | 0.00 | 0.00 | 49 | 1016.9 |
| 20260508192534 | 52 | 0 | 0.0 | 0.0 | 0.00 | 0.00 | 0.00 | 47 | 1016.8 |
| 20260508192030 | 52 | 0 | 0.0 | 0.0 | 0.00 | 0.00 | 0.00 | 47 | 1016.8 |
| 20260508191547 | 52 | 0 | 0.0 | 0.0 | 0.00 | 0.00 | 0.00 | 47 | 1016.8 |
| 20260508191029 | 52 | 0 | 0.0 | 0.0 | 0.00 | 0.00 | 0.00 | 47 | 1016.8 |
| 20260508190530 | 52 | 0 | 0.0 | 0.0 | 0.00 | 0.00 | 0.00 | 47 | 1016.8 |
| 20260508190040 | 52 | 0 | 0.0 | 1.0 | 0.00 | 0.00 | 0.00 | 48 | 1016.8 |
| 20260508185531 | 52 | 0 | 0.0 | 1.0 | 0.00 | 0.00 | 0.00 | 48 | 1016.7 |
| 20260508185030 | 52 | 0 | 0.0 | 1.0 | 0.00 | 0.00 | 0.00 | 46 | 1016.6 |
| 20260508184548 | 52 | 0 | 0.0 | 1.0 | 0.00 | 0.00 | 0.00 | 46 | 1016.7 |
| 20260508184030 | 53 | 268 | 0.0 | 1.0 | 0.00 | 0.00 | 0.00 | 47 | 1016.6 |
| 20260508183529 | 53 | 0 | 0.0 | 1.0 | 0.00 | 0.00 | 0.00 | 47 | 1016.5 |
| 20260508183048 | 53 | 0 | 0.0 | 1.0 | 0.00 | 0.00 | 0.00 | 45 | 1016.6 |
| 20260508182530 | 53 | 200 | 0.0 | 1.0 | 0.00 | 0.00 | 0.00 | 44 | 1016.5 |
| 20260508182030 | 54 | 142 | 0.0 | 1.0 | 0.00 | 0.00 | 0.00 | 46 | 1016.3 |
| 20260508181543 | 54 | 0 | 0.0 | 0.0 | 0.00 | 0.00 | 0.00 | 46 | 1016.3 |
| 20260508181030 | 54 | 0 | 0.0 | 0.0 | 0.00 | 0.00 | 0.00 | 45 | 1016.3 |
| 20260508180531 | 55 | 0 | 0.0 | 0.0 | 0.00 | 0.00 | 0.00 | 44 | 1016.2 |
| 20260508180042 | 55 | 0 | 0.0 | 0.0 | 0.00 | 0.00 | 0.00 | 44 | 1016.2 |
| 20260508175532 | 55 | 0 | 0.0 | 2.0 | 0.00 | 0.00 | 0.00 | 44 | 1016.2 |
| 20260508175031 | 56 | 0 | 0.0 | 2.0 | 0.00 | 0.00 | 0.00 | 43 | 1016.2 |
| 20260508174538 | 56 | 77 | 0.0 | 2.0 | 0.00 | 0.00 | 0.00 | 42 | 1016.3 |
| 20260508174028 | 56 | 0 | 0.0 | 2.0 | 0.00 | 0.00 | 0.00 | 39 | 1016.2 |
| 20260508173532 | 57 | 96 | 0.0 | 2.0 | 0.00 | 0.00 | 0.00 | 39 | 1016.1 |
| 20260508173040 | 57 | 0 | 0.0 | 4.0 | 0.00 | 0.00 | 0.00 | 39 | 1016.1 |
| 20260508172530 | 57 | 0 | 0.0 | 4.0 | 0.00 | 0.00 | 0.00 | 39 | 1016.2 |
| 20260508172028 | 57 | 323 | 0.0 | 4.0 | 0.00 | 0.00 | 0.00 | 38 | 1016.2 |
| 20260508171545 | 57 | 0 | 1.0 | 5.0 | 0.00 | 0.00 | 0.00 | 38 | 1016.1 |
| 20260508171033 | 57 | 1 | 0.0 | 5.0 | 0.00 | 0.00 | 0.00 | 38 | 1016.0 |
| 20260508170531 | 58 | 20 | 2.0 | 4.0 | 0.00 | 0.00 | 0.00 | 37 | 1016.0 |
| 20260508170042 | 58 | 134 | 0.0 | 3.0 | 0.00 | 0.00 | 0.00 | 35 | 1015.9 |
| 20260508165532 | 58 | 49 | 1.0 | 4.0 | 0.00 | 0.00 | 0.00 | 35 | 1015.7 |
| 20260508165036 | 58 | 32 | 1.0 | 4.0 | 0.00 | 0.00 | 0.00 | 33 | 1015.8 |
| 20260508164542 | 59 | 179 | 1.0 | 4.0 | 0.00 | 0.00 | 0.00 | 32 | 1015.9 |
| 20260508164031 | 59 | 201 | 0.0 | 5.0 | 0.00 | 0.00 | 0.00 | 31 | 1015.8 |
| 20260508163530 | 59 | 347 | 1.0 | 5.0 | 0.00 | 0.00 | 0.00 | 29 | 1015.8 |
| 20260508163041 | 60 | 92 | 2.0 | 7.0 | 0.00 | 0.00 | 0.00 | 28 | 1015.8 |
| 20260508162531 | 60 | 47 | 2.0 | 8.0 | 0.00 | 0.00 | 0.00 | 28 | 1016.0 |
| 20260508162031 | 61 | 77 | 1.0 | 8.0 | 0.00 | 0.00 | 0.00 | 29 | 1015.8 |
| 20260508161541 | 61 | 237 | 2.0 | 8.0 | 0.00 | 0.00 | 0.00 | 29 | 1015.9 |
| 20260508161030 | 61 | 0 | 1.0 | 7.0 | 0.00 | 0.00 | 0.00 | 29 | 1015.8 |
| 20260508160531 | 61 | 335 | 1.0 | 7.0 | 0.00 | 0.00 | 0.00 | 30 | 1015.8 |
| 20260508160041 | 61 | 0 | 1.0 | 7.0 | 0.00 | 0.00 | 0.00 | 30 | 1015.9 |
| 20260508155533 | 61 | 63 | 1.0 | 8.0 | 0.00 | 0.00 | 0.00 | 28 | 1015.8 |
| 20260508155031 | 61 | 62 | 1.0 | 8.0 | 0.00 | 0.00 | 0.00 | 32 | 1015.8 |
| 20260508154558 | 61 | 172 | 2.0 | 8.0 | 0.00 | 0.00 | 0.00 | 29 | 1015.9 |
| 20260508154030 | 61 | 171 | 2.0 | 10.0 | 0.00 | 0.00 | 0.00 | 30 | 1015.8 |
| 20260508153534 | 61 | 68 | 3.0 | 10.0 | 0.00 | 0.00 | 0.00 | 31 | 1015.7 |
| 20260508153044 | 61 | 193 | 4.0 | 10.0 | 0.00 | 0.00 | 0.00 | 28 | 1015.9 |